cover

Sebastian Krieg - Space Oddity (Original Mix)

Get it on iTunes

Trackname / Key / BPM / Publish dateArtists, Remixers / Label
126 bpm, 5A / C minor, 2014-05-22, Progressive House,  0  30

Tracks in release Housesession Ibiza 2014 Sampler

#Trackname / Key / BPM / Publish dateArtists, Remixers / Label
1 123 bpm, 5A / C minor, 2014-05-22, Indie Dance / Nu Disco,  0  30
2 125 bpm, 11B / A major, 2014-05-22, House,  0  30
3 123 bpm, 9A / E minor, 2014-05-22, House,  0  30
4 126 bpm, 9B / G major, 2014-05-22, House,  0  30
5 128 bpm, 5A / C minor, 2014-05-22, House,  0  30
6 128 bpm, 7A / D minor, 2014-05-22, House,  0  30
7 126 bpm, 7A / D minor, 2014-05-22, House,  0  30
8 126 bpm, 7A / D minor, 2014-05-22, House,  0  30
9 125 bpm, 2A / Eb minor, 2014-05-22, House,  0  30
10 127 bpm, 7B / F major, 2014-05-22, House,  0  30
11 124 bpm, 8A / A minor, 2014-05-22, House,  0  30
12 125 bpm, 5A / C minor, 2014-05-22, House,  0  30
13 125 bpm, 7A / D minor, 2014-05-22, Tech House,  0  30
14 128 bpm, 5A / C minor, 2014-05-22, House,  0  30
15 124 bpm, 5A / C minor, 2014-05-22, House,  0  30
16 123 bpm, 10A / B minor, 2014-05-22, House,  0  30
17 126 bpm, 8A / A minor, 2014-05-22, House,  0  30
18 126 bpm, 8A / A minor, 2014-05-22, Electro House,  0  30
19 128 bpm, 11A / F# minor, 2014-05-22, Progressive House,  0  30
20 128 bpm, 2A / Eb minor, 2014-05-22, Electro House,  0  30
21 128 bpm, 7B / F major, 2014-05-22, Progressive House,  0  30
22 128 bpm, 11A / F# minor, 2014-05-22, Electro House,  0  30
23 128 bpm, 1A / Ab minor, 2014-05-22, Progressive House,  0  30
24 128 bpm, 4B / Ab major, 2014-05-22, Electro House,  0  30
25 128 bpm, 1A / Ab minor, 2014-05-22, Progressive House,  0  30
26 126 bpm, 7B / F major, 2014-05-22, House,  0  30
27 128 bpm, 11B / A major, 2014-05-22, Progressive House,  0  30
28 128 bpm, 7A / D minor, 2014-05-22, Progressive House,  0  30
29 126 bpm, 5A / C minor, 2014-05-22, Progressive House,  0  30
30 126 bpm, 7A / D minor, 2014-05-22, House,  0  30
Please wait...